• In Latvia
  • List of Countries
  • For 7 days
  • Water Temperature
  • Satellite Maps
  • Weather Map
  • Weather Widgets
  • user-avatar
    Login

    Hourly Weather Balceana

    Today, 20 August, Monday

    Time Temperature Precipitation Wind Pressure Humidity
    00:00 +24°C° 0 mm 1 mps 755 mmHg 66%
    01:00 +23°C° 0 mm 1 mps 755 mmHg 69%
    02:00 +22°C° 0 mm 1 mps 754 mmHg 72%
    03:00 +22°C° 0 mm 1 mps 754 mmHg 75%
    04:00 +21°C° 0 mm 1 mps 754 mmHg 77%
    05:00 +21°C° 0 mm 1 mps 754 mmHg 79%
    06:00 +22°C° 0 mm 1 mps 754 mmHg 73%
    07:00 +24°C° 0 mm 2 mps 754 mmHg 67%
    08:00 +26°C° 0 mm 2 mps 754 mmHg 61%
    09:00 +28°C° 0 mm 2 mps 754 mmHg 55%
    10:00 +30°C° 0 mm 2 mps 754 mmHg 48%
    11:00 +31°C° 0 mm 2 mps 754 mmHg 42%
    12:00 +32°C° 0 mm 1 mps 754 mmHg 39%
    13:00 +33°C° 0 mm 1 mps 753 mmHg 37%
    14:00 +33°C° 0 mm 1 mps 753 mmHg 34%
    15:00 +33°C° 0 mm 1 mps 753 mmHg 35%
    16:00 +33°C° 0 mm 1 mps 753 mmHg 35%
    17:00 +32°C° 0 mm 1 mps 753 mmHg 35%
    18:00 +31°C° 0 mm 1 mps 753 mmHg 38%
    19:00 +29°C° 0 mm 1 mps 753 mmHg 41%
    20:00 +27°C° 0 mm 2 mps 753 mmHg 44%
    21:00 +26°C° 0 mm 2 mps 753 mmHg 45%
    22:00 +25°C° 0 mm 2 mps 753 mmHg 45%
    23:00 +24°C° 0 mm 2 mps 753 mmHg 46%

    Tomorrow, 21 August, Tuesday

    Time Temperature Precipitation Wind Pressure Humidity
    00:00 +24°C° 0 mm 2 mps 753 mmHg 47%
    01:00 +23°C° 0 mm 2 mps 753 mmHg 48%
    02:00 +21°C° 0 mm 2 mps 753 mmHg 49%
    03:00 +22°C° 0 mm 1 mps 753 mmHg 51%
    04:00 +22°C° 0 mm 1 mps 753 mmHg 53%
    05:00 +21°C° 0 mm 1 mps 753 mmHg 54%
    06:00 +23°C° 0 mm 1 mps 753 mmHg 51%
    07:00 +25°C° 0 mm 1 mps 753 mmHg 48%
    08:00 +27°C° 0 mm 1 mps 753 mmHg 45%
    09:00 +29°C° 0 mm 1 mps 753 mmHg 42%
    10:00 +30°C° 0 mm 2 mps 753 mmHg 39%
    11:00 +32°C° 0 mm 2 mps 753 mmHg 37%
    12:00 +34°C° 0 mm 2 mps 753 mmHg 36%
    13:00 +34°C° 0 mm 2 mps 753 mmHg 35%
    14:00 +34°C° 0 mm 2 mps 752 mmHg 33%
    15:00 +34°C° 0 mm 2 mps 752 mmHg 34%
    16:00 +34°C° 0 mm 2 mps 752 mmHg 34%
    17:00 +34°C° 0 mm 2 mps 752 mmHg 34%
    18:00 +32°C° 0 mm 2 mps 752 mmHg 39%
    19:00 +30°C° 0 mm 2 mps 753 mmHg 43%
    20:00 +28°C° 0 mm 2 mps 753 mmHg 48%
    21:00 +27°C° 0 mm 3 mps 753 mmHg 54%
    22:00 +26°C° 0 mm 3 mps 753 mmHg 60%
    23:00 +25°C° 0 mm 3 mps 754 mmHg 65%

    Day after tomorrow, 22 August, Wednesday

    Time Temperature Precipitation Wind Pressure Humidity
    00:00 +24°C° 0.1 mm 3 mps 754 mmHg 70%
    01:00 +24°C° 0.1 mm 3 mps 754 mmHg 74%
    02:00 +22°C° 0.1 mm 3 mps 754 mmHg 79%
    03:00 +21°C° 0 mm 3 mps 754 mmHg 80%
    04:00 +21°C° 0 mm 3 mps 754 mmHg 81%
    05:00 +20°C° 0 mm 3 mps 755 mmHg 83%
    06:00 +21°C° 0 mm 3 mps 755 mmHg 75%
    07:00 +22°C° 0 mm 4 mps 755 mmHg 68%
    08:00 +25°C° 0 mm 4 mps 755 mmHg 60%
    09:00 +26°C° 0 mm 4 mps 756 mmHg 53%
    10:00 +28°C° 0 mm 4 mps 756 mmHg 46%
    11:00 +29°C° 0 mm 5 mps 756 mmHg 40%
    12:00 +30°C° 0 mm 4 mps 756 mmHg 37%
    13:00 +32°C° 0 mm 4 mps 755 mmHg 34%
    14:00 +32°C° 0 mm 4 mps 755 mmHg 32%
    15:00 +32°C° 0 mm 4 mps 755 mmHg 32%
    16:00 +32°C° 0 mm 4 mps 755 mmHg 32%
    17:00 +30°C° 0 mm 4 mps 755 mmHg 32%
    18:00 +28°C° 0 mm 4 mps 755 mmHg 37%
    19:00 +26°C° 0 mm 3 mps 756 mmHg 43%
    20:00 +24°C° 0 mm 3 mps 756 mmHg 48%
    21:00 +22°C° 0 mm 3 mps 756 mmHg 51%
    22:00 +21°C° 0 mm 3 mps 756 mmHg 54%
    23:00 +21°C° 0 mm 3 mps 756 mmHg 57%

    23 August, Thursday

    Time Temperature Precipitation Wind Pressure Humidity
    00:00 +20°C° 0 mm 3 mps 756 mmHg 59%
    01:00 +19°C° 0 mm 3 mps 756 mmHg 60%
    02:00 +19°C° 0 mm 3 mps 756 mmHg 62%
    03:00 +18°C° 0 mm 2 mps 756 mmHg 63%
    04:00 +17°C° 0 mm 2 mps 756 mmHg 64%
    05:00 +17°C° 0 mm 2 mps 756 mmHg 65%
    06:00 +19°C° 0 mm 2 mps 756 mmHg 60%
    07:00 +20°C° 0 mm 3 mps 756 mmHg 54%
    08:00 +22°C° 0 mm 3 mps 756 mmHg 49%
    09:00 +25°C° 0 mm 3 mps 756 mmHg 44%
    10:00 +26°C° 0 mm 3 mps 756 mmHg 39%
    11:00 +28°C° 0 mm 3 mps 756 mmHg 34%
    12:00 +29°C° 0 mm 3 mps 755 mmHg 31%
    13:00 +30°C° 0 mm 3 mps 755 mmHg 28%
    14:00 +31°C° 0 mm 3 mps 755 mmHg 26%
    15:00 +30°C° 0 mm 3 mps 754 mmHg 26%
    16:00 +30°C° 0 mm 3 mps 754 mmHg 26%
    17:00 +30°C° 0 mm 3 mps 754 mmHg 26%
    18:00 +28°C° 0 mm 3 mps 754 mmHg 29%
    19:00 +26°C° 0 mm 3 mps 754 mmHg 33%
    20:00 +24°C° 0 mm 2 mps 754 mmHg 37%
    21:00 +23°C° 0 mm 2 mps 754 mmHg 39%
    22:00 +21°C° 0 mm 2 mps 754 mmHg 41%
    23:00 +20°C° 0 mm 2 mps 754 mmHg 43%

    24 August, Friday

    Time Temperature Precipitation Wind Pressure Humidity
    00:00 +20°C° 0 mm 1 mps 754 mmHg 44%
    01:00 +20°C° 0 mm 1 mps 754 mmHg 45%
    02:00 +19°C° 0 mm 1 mps 753 mmHg 46%
    03:00 +19°C° 0 mm 1 mps 753 mmHg 47%
    04:00 +18°C° 0 mm 1 mps 753 mmHg 48%
    05:00 +18°C° 0 mm 1 mps 753 mmHg 49%
    06:00 +20°C° 0 mm 1 mps 753 mmHg 45%
    07:00 +21°C° 0 mm 2 mps 753 mmHg 42%
    08:00 +24°C° 0 mm 2 mps 753 mmHg 39%
    09:00 +26°C° 0 mm 2 mps 753 mmHg 37%
    10:00 +28°C° 0 mm 2 mps 753 mmHg 35%
    11:00 +30°C° 0 mm 3 mps 752 mmHg 33%
    12:00 +30°C° 0 mm 3 mps 752 mmHg 31%
    13:00 +31°C° 0 mm 2 mps 751 mmHg 29%
    14:00 +32°C° 0 mm 2 mps 751 mmHg 27%
    15:00 +32°C° 0 mm 2 mps 751 mmHg 26%
    16:00 +32°C° 0 mm 2 mps 751 mmHg 26%
    17:00 +32°C° 0 mm 2 mps 750 mmHg 26%
    18:00 +30°C° 0 mm 2 mps 750 mmHg 29%
    19:00 +27°C° 0 mm 2 mps 750 mmHg 32%
    20:00 +25°C° 0 mm 2 mps 750 mmHg 35%
    21:00 +24°C° 0 mm 2 mps 750 mmHg 36%
    22:00 +23°C° 0 mm 1 mps 750 mmHg 37%
    23:00 +22°C° 0 mm 1 mps 750 mmHg 38%

    25 August, Saturday

    Time Temperature Precipitation Wind Pressure Humidity
    00:00 +22°C° 0 mm 1 mps 750 mmHg 39%
    01:00 +21°C° 0 mm 1 mps 750 mmHg 40%
    02:00 +21°C° 0 mm 1 mps 750 mmHg 41%
    03:00 +20°C° 0 mm 1 mps 750 mmHg 42%
    04:00 +20°C° 0 mm 1 mps 750 mmHg 43%
    05:00 +19°C° 0 mm 1 mps 749 mmHg 44%
    06:00 +22°C° 0 mm 1 mps 750 mmHg 41%
    07:00 +24°C° 0 mm 1 mps 750 mmHg 39%
    08:00 +26°C° 0 mm 1 mps 750 mmHg 36%
    09:00 +28°C° 0 mm 2 mps 749 mmHg 33%
    10:00 +30°C° 0 mm 2 mps 749 mmHg 31%
    11:00 +33°C° 0 mm 3 mps 749 mmHg 29%
    12:00 +34°C° 0 mm 3 mps 749 mmHg 27%
    13:00 +35°C° 0 mm 3 mps 749 mmHg 25%
    14:00 +36°C° 0 mm 3 mps 748 mmHg 23%
    15:00 +35°C° 0 mm 3 mps 748 mmHg 24%
    16:00 +35°C° 0 mm 3 mps 748 mmHg 25%
    17:00 +35°C° 0 mm 3 mps 748 mmHg 26%
    18:00 +33°C° 0 mm 3 mps 748 mmHg 32%
    19:00 +30°C° 0 mm 3 mps 748 mmHg 38%
    20:00 +27°C° 0 mm 3 mps 748 mmHg 44%
    21:00 +26°C° 0 mm 3 mps 748 mmHg 51%
    22:00 +25°C° 0 mm 3 mps 749 mmHg 58%
    23:00 +24°C° 0 mm 2 mps 749 mmHg 66%
    Show more